TimeNST,TemperatureF,Dew PointF,Humidity,Sea Level PressureIn,VisibilityMPH,Wind Direction,Wind SpeedMPH,Gust SpeedMPH,PrecipitationIn,Events,Conditions,WindDirDegrees,DateUTC
1:30 AM,22.3,18.9,87,-9999,-9999.0,ESE,3.5,-,N/A,,Unknown,120,2013-03-09 05:00:00
2:30 AM,23,19,79,,,East,3.5,,,,,100,2013-03-09 06:00:00
2:30 AM,23.0,19.2,85,-9999,-9999.0,East,3.5,-,N/A,,Unknown,100,2013-03-09 06:00:00
3:30 AM,22.6,18.9,85,-9999,-9999.0,ESE,4.6,-,N/A,,Unknown,110,2013-03-09 07:00:00
4:30 AM,22.8,18.5,83,-9999,-9999.0,SE,5.8,-,N/A,,Unknown,140,2013-03-09 08:00:00
5:30 AM,23.2,19.0,84,-9999,-9999.0,SE,4.6,-,N/A,,Unknown,140,2013-03-09 09:00:00
6:30 AM,22.1,18.3,85,-9999,-9999.0,ESE,3.5,-,N/A,,Unknown,120,2013-03-09 10:00:00
7:30 AM,18.7,16.0,89,-9999,-9999.0,ENE,3.5,-,N/A,,Unknown,60,2013-03-09 11:00:00
8:30 AM,27,20,67,,,SE,6.9,,,,,130,2013-03-09 12:00:00
8:30 AM,26.6,20.5,78,-9999,-9999.0,SE,6.9,-,N/A,,Unknown,130,2013-03-09 12:00:00
9:30 AM,30.0,20.8,69,-9999,-9999.0,South,6.9,-,N/A,,Unknown,170,2013-03-09 13:00:00
10:30 AM,32.0,21.6,65,-9999,-9999.0,SSE,8.1,-,N/A,,Unknown,160,2013-03-09 14:00:00
11:30 AM,34.5,22.5,61,-9999,-9999.0,SSE,8.1,-,N/A,,Unknown,160,2013-03-09 15:00:00
12:30 PM,36.9,22.3,56,-9999,-9999.0,SSE,5.8,-,N/A,,Unknown,160,2013-03-09 16:00:00
1:30 PM,40.6,23.4,50,-9999,-9999.0,South,3.5,-,N/A,,Unknown,180,2013-03-09 17:00:00
2:30 PM,42,24,36,,,SE,2.3,,,,,140,2013-03-09 18:00:00
2:30 PM,42.1,24.1,49,-9999,-9999.0,SE,2.3,-,N/A,,Unknown,140,2013-03-09 18:00:00
3:30 PM,39.2,23.7,54,-9999,-9999.0,WSW,5.8,-,N/A,,Unknown,250,2013-03-09 19:00:00
4:30 PM,38.5,24.6,58,-9999,-9999.0,WSW,4.6,-,N/A,,Unknown,250,2013-03-09 20:00:00
5:30 PM,33.6,25.3,72,-9999,-9999.0,West,4.6,-,N/A,,Unknown,260,2013-03-09 21:00:00
6:30 PM,28.4,23.2,81,-9999,-9999.0,SSE,2.3,-,N/A,,Unknown,160,2013-03-09 22:00:00
7:30 PM,27.0,23.7,88,-9999,-9999.0,SSE,2.3,-,N/A,,Unknown,160,2013-03-09 23:00:00
8:30 PM,27,24,86,,,ESE,2.3,,,,,120,2013-03-10 00:00:00
8:30 PM,27.3,24.4,89,-9999,-9999.0,ESE,2.3,-,N/A,,Unknown,120,2013-03-10 00:00:00
9:30 PM,28.0,24.3,86,-9999,-9999.0,SE,1.2,-,N/A,,Unknown,140,2013-03-10 01:00:00
10:30 PM,27.7,23.5,84,-9999,-9999.0,SSE,2.3,-,N/A,,Unknown,160,2013-03-10 02:00:00
11:30 PM,27.5,22.8,83,-9999,-9999.0,East,3.5,-,N/A,,Unknown,100,2013-03-10 03:00:00